Regional Weather Roundup
Issued by NWS Albany, NY

Home | Current Version | Previous Version | Graphics & Text | Print | Product List | Glossary Off
Versions: 1 2 3 4 5 6 7 8 9 10 11 12 13 14 15 16 17 18 19 20 21 22 23 24 25 26 27 28 29 30 31 32 33 34 35 36 37 38 39 40 41 42 43 44 45 46 47 48 49 50

000
ASUS41 KALY 030110
RWRALY

NEW YORK STATE HOURLY WEATHER ROUNDUP
NATIONAL WEATHER SERVICE ALBANY NY
800 PM EST MON MAR 02 2015

NOTE: "FAIR" INDICATES FEW OR NO CLOUDS BELOW 12,000 FEET WITH NO
SIGNIFICANT WEATHER AND/OR NO OBSTRUCTIONS TO VISIBILITY.

NYZ032-033-038>043-046>054-057>066-NYZ062>081-030200-
EAST


CITY           SKY/WX    TMP DP  RH WIND       PRES   REMARKS
ALBANY         PTCLDY    25   8  48 NW15G23   30.29R WCI  13
GLENS FALLS    CLOUDY    27   7  42 NW15G21   30.25R WCI  15
POUGHKEEPSIE   CLEAR     28   8  43 NW6       30.27R WCI  22
NEWBURGH       CLEAR     27  12  54 NW20G33   30.27R WCI  13
MONTGOMERY     CLEAR     26   8  46 NW8       30.27R WCI  18
WHITE PLAINS   CLEAR     28   9  44 NW18      30.23R WCI  15
ISLIP          CLEAR     31  11  43 NW12G22   30.24R WCI  22
NEW YORK CITY  PTCLDY    33  11  39 NW20      30.27R WCI  21
CENTRAL PARK   CLEAR     33   9  36 NW9G20    30.30R WCI  25
$$

NYZ005>009-017-018-044>046-055-056-030200-
CENTRAL


CITY           SKY/WX    TMP DP  RH WIND       PRES   REMARKS
FULTON         CLEAR     22   8  55 W13       30.35R WCI  10
SYRACUSE       MOCLDY    20  11  68 MISG      30.35R
ROME           FAIR      19   9  65 NW15      30.33R WCI   5
ELMIRA         MOCLDY    23   9  55 W8        30.36R WCI  14
BINGHAMTON     MOCLDY    20   8  60 NW10G29   30.26R WCI   9
MONTICELLO     FAIR      21   9  58 NW15G24   30.22R WCI   8
$$

NYZ026>034-041>043-030200-
NORTH


CITY           SKY/WX    TMP DP  RH WIND       PRES   REMARKS
WATERTOWN      PTCLDY    20   8  60 W13       30.34R WCI   7
FORT DRUM      NOT AVBL
MASSENA        CLEAR     20   3  48 W8        30.31R WCI  10
SARANAC LAKE   CLEAR     15   4  61 VRB5      30.15R WCI   8
PLATTSBURGH    PTCLDY    22   9  57 NW10G21   30.25R WCI  11
$$

NYZ001>004-010>016-019>021-030200-
WEST


CITY           SKY/WX    TMP DP  RH WIND       PRES   REMARKS
NIAGARA FALLS  MOCLDY    21  10  62 W10       30.41S WCI  10
BUFFALO        MOCLDY    21   9  59 W12       30.40F WCI   9
DUNKIRK        CLEAR     15  11  83 SW7       30.44F WCI   5
JAMESTOWN      PTCLDY    16   9  73 W6        30.35S WCI   7
WELLSVILLE     MOCLDY    16   7  67 NW22G28   30.31R WCI  -2
ROCHESTER      MOCLDY    22   7  52 W9        30.39R WCI  12
PENN YAN       MOCLDY    22   9  57 NW6       30.36R WCI  14
$$

             KEY
       WCI = WIND CHILL INDEX
       VSB = VISIBILITY
       HX  = HEAT INDEX
$$


USA.gov is the U.S. government's official web portal to all federal, state and local government web resources and services.